812  
SXUS52 KTAE 241918  
OSOTAE  
OSOTAE  
NORTH FLORIDA/SOUTH ALABAMA/SOUTHWEST GEORGIA WEATHER ROUNDUP  
NATIONAL WEATHER SERVICE TALLAHASSEE FLORIDA  
300 PM EDT MON SEP 24 2018  
 
NOTE: "FAIR" INDICATES FEW OR NO CLOUDS BELOW 12,000 FEET WITH NO  
SIGNIFICANT WEATHER AND/OR OBSTRUCTIONS TO VISIBILITY.  
 
!FLZ017-115-028-034-025-242000   
..NORTH FLORIDA
 
 
 
CITY SKY/WX TMP DP RH WIND PRES REMARKS  
TALLAHASSEE FAIR 91 68 46 SE12 30.02F HX 95  
APALACHICOLA LGT RAIN 77 76 96 E7 30.02F  
PERRY FAIR 92 68 45 SE6 30.03F HX 96  
CROSS CITY FAIR 92 68 45 S7 30.02F HX 96  
JACKSONVILLE PTSUNNY 89 73 59 E13 30.04F HX 97  

 
 
!FLZ112-006-005-002-011-242000   
..FLORIDA PANHANDLE
 
 
 
CITY SKY/WX TMP DP RH WIND PRES REMARKS  
MARIANNA PTSUNNY 80 74 81 S7 30.02F  
BONIFAY MOCLDY 78 76 93 NE5 30.02S THUNDER  
PANAMA CITY NW PTSUNNY 89 75 63 SE15G22 30.00F HX 99  
TYNDALL AFB PTSUNNY 84 75 73 E10 30.01 HX 92  
TYND DRONE APT FAIR N/A N/A N/A SE10 N/A  
DE FUNIAK SPR NOT AVBL  
EGLIN AFB LGT RAIN 78 73 83 S12 30.00S  
DESTIN FAIR 81 74 79 SE7 30.00F  
HURLBURT FAIR 81 72 74 NE3 29.98F  
CRESTVIEW FAIR 77 74 90 N3 30.02F  
PENSACOLA PTSUNNY 80 75 84 S21G29 29.99S  

 
 
!ALZ063-066-242000   
..SOUTH ALABAMA
 
 
 
CITY SKY/WX TMP DP RH WIND PRES REMARKS  
DOTHAN FAIR 87 69 54 SE12 30.04F HX 91  
OZARK CAIRNS FAIR 82 77 83 SE14G21 30.01S THUNDER HX 91  
FT RUCKER HELI PTSUNNY 87 73 62 E5 29.99F HX 94  
RUCKER HELI 3 PTSUNNY 89 72 57 SE12 29.99F HX 95  
RUCKER HELI 2 RAIN 82 73 74 SE9 29.99F  
FLORALA APT TSTM 77 73 87 S5 30.05R  
ANDALUSIA TSTM 77 72 84 S7 30.03S  
TROY FAIR 88 71 57 SE12 30.01F HX 94  
EUFALA PTSUNNY 90 68 48 SE8 30.02F HX 94  
MOBILE PTSUNNY 85 74 69 S15 29.99F HX 92  

 
 
!GAZ120>161-242000   
..SOUTHWEST AND SOUTH CENTRAL GEORGIA
 
 
 
CITY SKY/WX TMP DP RH WIND PRES REMARKS  
THOMASVILLE PTSUNNY 88 70 55 E6 30.05F HX 92  
BAINBRIDGE N/A 91 64 40 SE8G16 30.02F HX 93  
MOODY AFB FAIR N/A N/A N/A SE7 30.05F  
VALDOSTA FAIR 88 69 53 E7 30.03F HX 92  
MOULTRIE FAIR 90 68 48 SE7 30.05F HX 93  
BLAKELY FAIR 88 63 42 E7 30.03F  
ALBANY PTSUNNY 92 67 43 E14 30.05F HX 95  
TIFTON PTSUNNY 90 63 39 E5 30.05F HX 91  
FITZGERALD FAIR 89 70 53 E10 30.08F HX 94  
CORDELE FAIR 90 67 46 SE8 30.07F HX 93  
AMERICUS N/A 93 63 36 S9G17 30.07F HX 94  
HOMERVILLE FAIR 91 72 52 E8 30.05F HX 98  

 
 
!GMZ750-755-770-775-242000   
..COASTAL AND BUOY OBS
 
 
 
STATION/POSITION TIME TEMP WIND PRES VSBY WAVE  
AIR SEA DIR/SP/G HT/PER  
(UTC) (F) (DEG/KT/KT) (MB) (MI) (FT/S)  
KEATON BEACH 1900 84 220/ 7/ 8 1017.0F  
CEDAR KEY 1900 86 250/ 3/ 4 1016.8F  
C TOWER 1900 78 130/ 15/ 17 1017.1F  
APALACHICOLA BUO NOT AVBL  
PANAMA CITY BUOY 1850 84 86 210/ 8/ 12 1015.7F 2/ 4  
MOBILE BUOY 1850 170/ 10/ 12 1015.5F 2/ 5  
ORANGE BCH AL BU 1900 80 170/ 12/ 14 1015.5  

 
 
 
CLICK HERE TO GO TO PREVIOUS BULLETINS.

The Nexlab FL Page
The Nexlab GA Page
The Nexlab AL Page Main Text Page